[[{"header":{"parameterUnit":"m.s-1","parameterCategory":2,"la1":30.2992,"la2":30.254,"lo1":-89.0895,"lo2":-89.0443,"dy":0.0025,"dx":0.0025,"nx":19,"ny":19,"refTime":"2026-04-04T09:00:00:Z","depth":"0","parameterNumber":2,"parameterNumberName":"U-component_of_CURRENTS"},"data":[0,0,0,0.296,0.296,0.2947,0.2947,0.2977,0.2978,0,0,0,0,0,0,0,0,0,0,0,0.296,0.296,0.296,0.296,0.2947,0.2947,0.2977,0.2978,0,0,0,0,0,0,0,0,0,0,0,0.296,0.296,0.296,0.296,0.2947,0.2947,0.2977,0.2973,0,0,0,0,0,0,0,0,0,0,0.2979,0.3007,0.296,0.296,0.296,0.2947,0.2947,0.2973,0.2974,0.2999,0,0.2998,0,0.2996,0.2982,0.2982,0,0,0,0.2952,0.3006,0.2974,0.296,0.296,0.2948,0.2951,0.2973,0.2974,0.3001,0.2999,0.3,0.2997,0.2982,0.2982,0.3096,0.3097,0,0,0.2953,0.2987,0.2973,0.2975,0.296,0.2951,0.2951,0.2973,0.2994,0.2999,0.3,0.2997,0.2982,0.2983,0.3096,0.3097,0,0,0,0.296,0.2988,0.2954,0.2974,0.2972,0.2951,0.295,0.2993,0.2974,0.3,0.2997,0.2983,0.2983,0.3095,0.3096,0.3166,0,0,0,0.296,0.2992,0.2955,0.2979,0.2971,0.2985,0.2971,0.2972,0.2975,0.2997,0.2983,0.2984,0.3094,0.3095,0.3162,0.3202,0,0,0,0.296,0.2993,0.2985,0.298,0.2975,0.2983,0.2966,0.2972,0.2974,0.2982,0.2984,0.3093,0.3095,0.3159,0.3196,0.3262,0,0,0,0.3003,0.3017,0.2986,0.3014,0.2975,0.2995,0.2966,0.2995,0.3009,0.2983,0.3094,0.3096,0.3157,0.3192,0.3258,0.3237,0.3255,0,0,0.304,0.3023,0.3037,0.3008,0.3029,0.2996,0.3056,0.3057,0.3047,0.3086,0.3088,0.3163,0.3196,0.3262,0.335,0.3364,0,0,0,0.3061,0.3062,0.3068,0.3073,0.3075,0.3102,0.3096,0.3111,0.315,0.3064,0.3184,0.3202,0.3241,0.3221,0.3232,0.3222,0.3105,0.3105,0.3104,0.313,0.3113,0.3131,0.3115,0.3147,0.3182,0.322,0.3242,0.3214,0.3253,0.3274,0.3393,0.3372,0.338,0.3371,0.3285,0.3286,0.3286,0.3286,0.3152,0.3134,0.3154,0.3157,0.3191,0.3244,0.3332,0.3343,0.3424,0.3369,0.3403,0.3313,0.3397,0.3382,0.3291,0.329,0.3289,0.3289,0.3289,0.317,0.3144,0.3154,0.3154,0.3214,0.3275,0.3372,0.3453,0.3495,0.3544,0.3515,0.3513,0.3487,0.3557,0.3558,0.3558,0.3559,0.3559,0.3559,0.314,0.3144,0.3119,0.3146,0.3154,0.3245,0.3401,0.3476,0.3586,0.3607,0.3607,0.3536,0.3476,0.3451,0.3567,0.3565,0.3564,0.3564,0.3563,0.3054,0.3078,0.3034,0.3029,0.3057,0.3104,0.3303,0.348,0.3593,0.3644,0.3665,0.3641,0.362,0.3609,0.3587,0.3733,0.3733,0.3733,0.3733,0.2978,0.2996,0.2894,0.2866,0.2902,0.3014,0.3094,0.3302,0.3558,0.3657,0.3731,0.3654,0.3647,0.3623,0.3611,0.3588,0.373,0.373,0.373,0.2863,0.2862,0.2756,0.2757,0.279,0.288,0.2924,0.3101,0.35,0.373,0.373,0.373,0.3613,0.3603,0.3554,0.3539,0.3496,0,0]},{"header":{"parameterUnit":"m.s-1","parameterCategory":2,"la1":30.2992,"la2":30.254,"lo1":-89.0895,"lo2":-89.0443,"dy":0.0025,"dx":0.0025,"nx":19,"ny":19,"refTime":"2026-04-04T09:00:00:Z","depth":"0","parameterNumber":3,"parameterNumberName":"V-component_of_CURRENTS"},"data":[0,0,0,0.0128,0.0129,0.0152,0.0152,0.008,0.008,0,0,0,0,0,0,0,0,0,0,0,0.0115,0.0115,0.0128,0.0129,0.0152,0.0152,0.008,0.008,0,0,0,0,0,0,0,0,0,0,0,0.0115,0.0115,0.0116,0.0129,0.0152,0.0152,0.008,0.0083,0,0,0,0,0,0,0,0,0,0,0.0071,0.0062,0.0115,0.0116,0.013,0.0152,0.0152,0.0084,0.0083,0.0048,0,0.0067,0,0.0082,0.0074,0.0074,0,0,0,0.0107,0.0063,0.0094,0.0116,0.013,0.0152,0.0135,0.0084,0.0083,0.0046,0.0067,0.0065,0.0081,0.0074,0.0074,0.0063,0.0064,0,0,0.0106,0.0087,0.0096,0.0094,0.0155,0.0135,0.0137,0.0084,0.0073,0.0067,0.0064,0.008,0.0073,0.0073,0.0063,0.0064,0,0,0,0.0117,0.0086,0.012,0.0096,0.0114,0.0136,0.0138,0.0074,0.0094,0.0063,0.0079,0.0073,0.0072,0.0062,0.0063,0.0169,0,0,0,0.0115,0.0095,0.012,0.0104,0.0116,0.0104,0.0129,0.0097,0.0092,0.0079,0.0073,0.0071,0.0062,0.0063,0.0165,0.0225,0,0,0,0.011,0.0093,0.0109,0.0104,0.0128,0.0106,0.0121,0.0097,0.0102,0.0074,0.0071,0.0062,0.0063,0.0162,0.0218,0.0261,0,0,0,0.0073,0.0118,0.0108,0.0156,0.0128,0.0181,0.0121,0.0128,0.0112,0.0073,0.0062,0.0063,0.0161,0.0214,0.0257,0.0345,0.037,0,0,0.0119,0.0122,0.0156,0.0149,0.0231,0.0175,0.0226,0.0171,0.0113,0.0067,0.0067,0.0167,0.0218,0.026,0.0407,0.0431,0,0,0,0.0164,0.0197,0.0216,0.0257,0.0276,0.0296,0.0244,0.0216,0.0181,0.0113,0.0159,0.0188,0.0211,0.0255,0.0274,0.0143,0.0068,0.0068,0.0068,0.0216,0.0246,0.0314,0.0355,0.0374,0.037,0.037,0.0319,0.0246,0.0246,0.0268,0.0367,0.0415,0.043,0.0294,0.0253,0.0253,0.0253,0.0254,0.0325,0.0379,0.0396,0.0472,0.0484,0.0514,0.0489,0.0449,0.043,0.0354,0.0371,0.0358,0.0458,0.0305,0.026,0.0259,0.0258,0.0258,0.0257,0.0374,0.0409,0.0444,0.0546,0.0615,0.0623,0.0704,0.0646,0.0543,0.056,0.0573,0.0572,0.0442,0.0559,0.0559,0.056,0.056,0.0561,0.0561,0.0417,0.0461,0.0543,0.0637,0.071,0.0811,0.0834,0.0838,0.079,0.0707,0.0706,0.0469,0.0459,0.0452,0.0568,0.0567,0.0566,0.0565,0.0565,0.0519,0.0519,0.065,0.0728,0.0915,0.1082,0.1083,0.1115,0.1058,0.1049,0.0707,0.077,0.0743,0.0726,0.0725,0.0905,0.0905,0.0905,0.0905,0.0577,0.0589,0.0758,0.0899,0.1081,0.1212,0.1407,0.1399,0.1114,0.0934,0.077,0.07,0.0692,0.0654,0.0639,0.0631,0.0784,0.0783,0.0782,0.0666,0.0696,0.0824,0.0946,0.1155,0.137,0.1582,0.1655,0.1175,0.0757,0.0571,0.0577,0.0446,0.0444,0.0356,0.0346,0.0323,0,0]}],[{"header":{"parameterUnit":"m.s-1","parameterCategory":2,"la1":30.2992,"la2":30.254,"lo1":-89.0895,"lo2":-89.0443,"dy":0.0025,"dx":0.0025,"nx":19,"ny":19,"refTime":"2026-04-04T09:00:00:Z","depth":"2","parameterNumber":2,"parameterNumberName":"U-component_of_CURRENTS"},"data":[0,0,0,0.2887,0.2887,0.289,0.289,0.2924,0.2925,0,0,0,0,0,0,0,0,0,0,0,0.2882,0.2882,0.2887,0.2887,0.289,0.289,0.2924,0.2925,0,0,0,0,0,0,0,0,0,0,0,0.2882,0.2882,0.2882,0.2887,0.289,0.289,0.2924,0.2912,0,0,0,0,0,0,0,0,0,0,0.2904,0.293,0.2882,0.2882,0.2887,0.289,0.289,0.2911,0.2913,0.2935,0,0.2938,0,0.294,0.2928,0.2929,0,0,0,0.2878,0.2928,0.2901,0.2882,0.2888,0.289,0.2886,0.2911,0.2914,0.2937,0.2939,0.294,0.2941,0.2929,0.2929,0.3041,0.3042,0,0,0.2877,0.2909,0.2899,0.2902,0.2894,0.2886,0.2886,0.2912,0.2935,0.2939,0.2941,0.2941,0.2929,0.293,0.304,0.3041,0,0,0,0.2884,0.291,0.2881,0.2901,0.2904,0.2886,0.2887,0.2934,0.2916,0.2941,0.2942,0.293,0.293,0.304,0.3041,0.3111,0,0,0,0.2883,0.2913,0.2881,0.2904,0.2903,0.2924,0.2908,0.2914,0.2917,0.2941,0.293,0.2931,0.3039,0.304,0.3107,0.3146,0,0,0,0.288,0.2914,0.2909,0.2905,0.2908,0.2922,0.2907,0.2914,0.2919,0.2929,0.2931,0.3038,0.304,0.3103,0.314,0.3204,0,0,0,0.2919,0.2935,0.291,0.2942,0.2908,0.2933,0.2907,0.294,0.2955,0.293,0.3039,0.3041,0.3102,0.3137,0.32,0.3157,0.3172,0,0,0.2955,0.2942,0.2957,0.2933,0.2958,0.2931,0.2993,0.2998,0.2991,0.3028,0.3031,0.3108,0.314,0.3203,0.3266,0.3278,0,0,0,0.2978,0.298,0.2989,0.2999,0.3006,0.3037,0.3035,0.3051,0.3093,0.301,0.3127,0.3145,0.3183,0.3149,0.3159,0.305,0.3049,0.3049,0.3049,0.3046,0.3031,0.3052,0.304,0.3075,0.3116,0.3155,0.3179,0.3154,0.3194,0.3216,0.3331,0.3297,0.3304,0.3226,0.3227,0.3227,0.3227,0.3227,0.3067,0.3051,0.3075,0.3082,0.3122,0.3176,0.3265,0.3278,0.3359,0.3308,0.334,0.3241,0.3319,0.3233,0.3232,0.3231,0.3231,0.323,0.323,0.3068,0.3049,0.3065,0.308,0.3145,0.321,0.3307,0.3388,0.343,0.3478,0.3436,0.3434,0.3372,0.3492,0.3493,0.3493,0.3494,0.3494,0.3494,0.3033,0.3045,0.3031,0.3073,0.3088,0.3182,0.3338,0.341,0.3509,0.3525,0.3524,0.3421,0.3412,0.3388,0.3502,0.35,0.3499,0.3499,0.3498,0.2949,0.2982,0.2949,0.2954,0.2998,0.3027,0.3234,0.3395,0.3506,0.3548,0.3551,0.3547,0.3524,0.3514,0.3492,0.3626,0.3626,0.3626,0.3626,0.2882,0.2903,0.2828,0.2808,0.2846,0.2933,0.295,0.3049,0.3272,0.332,0.3332,0.3227,0.3231,0.3183,0.3181,0.3149,0.3194,0.3193,0.3191,0.2792,0.2792,0.27,0.2704,0.2737,0.2782,0.2703,0.259,0.2786,0.3163,0.3134,0.3621,0.3499,0.3492,0.344,0.3428,0.3385,0,0]},{"header":{"parameterUnit":"m.s-1","parameterCategory":2,"la1":30.2992,"la2":30.254,"lo1":-89.0895,"lo2":-89.0443,"dy":0.0025,"dx":0.0025,"nx":19,"ny":19,"refTime":"2026-04-04T09:00:00:Z","depth":"2","parameterNumber":3,"parameterNumberName":"V-component_of_CURRENTS"},"data":[0,0,0,0.0214,0.0214,0.0226,0.0226,0.0158,0.0157,0,0,0,0,0,0,0,0,0,0,0,0.0204,0.0205,0.0213,0.0214,0.0226,0.0226,0.0158,0.0157,0,0,0,0,0,0,0,0,0,0,0,0.0204,0.0205,0.0205,0.0215,0.0226,0.0226,0.0158,0.0165,0,0,0,0,0,0,0,0,0,0,0.0163,0.0155,0.0205,0.0205,0.0215,0.0226,0.0226,0.0166,0.0165,0.0135,0,0.015,0,0.0161,0.0153,0.0152,0,0,0,0.0196,0.0157,0.0182,0.0205,0.0215,0.0226,0.0215,0.0166,0.0164,0.0133,0.0149,0.0147,0.016,0.0152,0.0152,0.0144,0.0144,0,0,0.0195,0.0179,0.0184,0.0182,0.0233,0.0215,0.0216,0.0166,0.0155,0.0149,0.0146,0.0159,0.0152,0.0151,0.0144,0.0144,0,0,0,0.0206,0.0178,0.0206,0.0184,0.0198,0.0216,0.0217,0.0156,0.0173,0.0145,0.0158,0.0151,0.015,0.0143,0.0144,0.0245,0,0,0,0.0205,0.0187,0.0206,0.0192,0.02,0.0185,0.0208,0.0176,0.0171,0.0158,0.0151,0.015,0.0143,0.0143,0.0242,0.0301,0,0,0,0.0201,0.0185,0.0197,0.0192,0.0209,0.0187,0.0198,0.0175,0.0179,0.0152,0.015,0.0142,0.0143,0.0238,0.0294,0.0334,0,0,0,0.017,0.0211,0.0197,0.024,0.021,0.0258,0.0199,0.0204,0.0188,0.0151,0.0143,0.0144,0.0237,0.029,0.033,0.0409,0.0433,0,0,0.0215,0.0215,0.0245,0.0234,0.031,0.0254,0.0301,0.0247,0.0191,0.0148,0.0149,0.0243,0.0294,0.0333,0.0469,0.0492,0,0,0,0.0255,0.0285,0.0302,0.0337,0.0352,0.037,0.0318,0.0291,0.0256,0.0191,0.0236,0.0264,0.0286,0.0325,0.0343,0.0149,0.0149,0.0148,0.0148,0.0309,0.0334,0.0396,0.0431,0.0448,0.0441,0.0441,0.0392,0.032,0.0319,0.0341,0.0435,0.0478,0.0493,0.0325,0.0326,0.0326,0.0327,0.0327,0.0413,0.0463,0.0476,0.0544,0.0554,0.0582,0.0558,0.0517,0.0498,0.0425,0.044,0.0424,0.0519,0.0335,0.0333,0.0332,0.0331,0.0331,0.033,0.0468,0.0498,0.0527,0.0616,0.0681,0.0688,0.0766,0.0709,0.0607,0.0622,0.063,0.0629,0.0501,0.062,0.062,0.0621,0.0621,0.0621,0.0622,0.0514,0.055,0.0622,0.0705,0.0774,0.0871,0.0892,0.0894,0.0842,0.0759,0.0758,0.0534,0.0524,0.0517,0.0629,0.0628,0.0627,0.0626,0.0625,0.0608,0.0605,0.0725,0.0796,0.0972,0.1132,0.1132,0.1156,0.1099,0.1087,0.0824,0.0817,0.079,0.0774,0.0772,0.0944,0.0944,0.0944,0.0944,0.066,0.067,0.0823,0.0957,0.1134,0.1257,0.1425,0.1377,0.1203,0.1059,0.1054,0.1007,0.0993,0.0971,0.0951,0.095,0.1168,0.1168,0.1168,0.073,0.0764,0.0881,0.1002,0.1206,0.1408,0.1573,0.151,0.1235,0.1173,0.1047,0.0968,0.0881,0.0866,0.0812,0.0788,0.0777,0,0]}],[{"header":{"parameterUnit":"m.s-1","parameterCategory":2,"la1":30.2992,"la2":30.254,"lo1":-89.0895,"lo2":-89.0443,"dy":0.0025,"dx":0.0025,"nx":19,"ny":19,"refTime":"2026-04-04T09:00:00:Z","depth":"4","parameterNumber":2,"parameterNumberName":"U-component_of_CURRENTS"},"data":[0,0,0,0.1903,0.1907,0.2099,0.2099,0.2226,0.2227,0,0,0,0,0,0,0,0,0,0,0,0.1846,0.1849,0.1902,0.1908,0.2099,0.2099,0.2226,0.2227,0,0,0,0,0,0,0,0,0,0,0,0.1845,0.1848,0.1851,0.1909,0.2098,0.2099,0.2226,0.2106,0,0,0,0,0,0,0,0,0,0,0.1933,0.1883,0.1847,0.1851,0.191,0.2098,0.2099,0.2102,0.2114,0.2112,0,0.2174,0,0.2207,0.2235,0.2235,0,0,0,0.1889,0.1873,0.195,0.1851,0.1912,0.2098,0.2007,0.2109,0.2123,0.2127,0.2176,0.2181,0.2209,0.2236,0.2236,0.2387,0.2388,0,0,0.1879,0.1847,0.1942,0.196,0.2002,0.2001,0.2013,0.2119,0.2131,0.2176,0.2185,0.2211,0.2236,0.2237,0.2386,0.2387,0,0,0,0.1861,0.1839,0.1916,0.1954,0.2001,0.2007,0.2021,0.2126,0.2161,0.2186,0.2212,0.2237,0.2238,0.2385,0.2387,0.2461,0,0,0,0.1854,0.1831,0.1912,0.1889,0.2,0.2076,0.2026,0.2154,0.2167,0.2212,0.2237,0.2239,0.2384,0.2386,0.2457,0.249,0,0,0,0.183,0.1827,0.1868,0.1888,0.1982,0.2076,0.2116,0.2158,0.2183,0.2235,0.224,0.2384,0.2386,0.2453,0.2484,0.2539,0,0,0,0.1762,0.1825,0.1868,0.1952,0.198,0.2105,0.2115,0.2208,0.226,0.2238,0.2384,0.2386,0.2452,0.248,0.2535,0.2191,0,0,0,0.1795,0.1828,0.1881,0.1924,0.2042,0.2075,0.2184,0.2262,0.2283,0.2336,0.2341,0.2458,0.2483,0.2538,0.2307,0,0,0,0,0.186,0.1904,0.1947,0.2037,0.2125,0.2212,0.2278,0.2319,0.2416,0.2328,0.2477,0.2491,0.2522,0.2311,0.2396,0.2396,0.2395,0.2395,0.2395,0.183,0.1912,0.1997,0.211,0.219,0.2311,0.2388,0.2457,0.2463,0.2529,0.2565,0.2676,0.2456,0.2579,0.2579,0.258,0.258,0.258,0.2581,0.1866,0.1911,0.2032,0.2152,0.2266,0.2374,0.251,0.2558,0.2677,0.2652,0.2679,0.242,0.2588,0.2587,0.2586,0.2585,0.2584,0.2584,0.2583,0.1813,0.1845,0.196,0.2129,0.2283,0.2428,0.2548,0.2673,0.2751,0.2806,0.2584,0.2734,0.2712,0.2831,0.2831,0.2832,0.2832,0.2832,0.2832,0.1695,0.1806,0.1909,0.2103,0.2207,0.2375,0.2591,0.2653,0.2771,0.2639,0.2842,0.276,0.2752,0.2727,0.2839,0.2838,0.2837,0.2836,0.2836,0.1632,0.1693,0.1809,0.192,0.2127,0.221,0.2458,0.2509,0.2558,0.2519,0.2539,0.2552,0.2493,0.2492,0.2455,0.2491,0.2487,0.2483,0,0.1561,0.1608,0.1716,0.1808,0.1898,0.2083,0.207,0.219,0.2303,0.2224,0.2563,0.2583,0.259,0.2521,0.2514,0.2467,0,0,0,0.1535,0.1563,0.1593,0.1693,0.1763,0.1858,0.2049,0.2007,0.2294,0.2238,0.2383,0.2409,0.2658,0.2858,0.28,0.279,0.2747,0,0]},{"header":{"parameterUnit":"m.s-1","parameterCategory":2,"la1":30.2992,"la2":30.254,"lo1":-89.0895,"lo2":-89.0443,"dy":0.0025,"dx":0.0025,"nx":19,"ny":19,"refTime":"2026-04-04T09:00:00:Z","depth":"4","parameterNumber":3,"parameterNumberName":"V-component_of_CURRENTS"},"data":[0,0,0,0.0332,0.0332,0.0329,0.0329,0.0286,0.0286,0,0,0,0,0,0,0,0,0,0,0,0.033,0.033,0.0332,0.0332,0.0329,0.0329,0.0286,0.0286,0,0,0,0,0,0,0,0,0,0,0,0.033,0.033,0.033,0.0332,0.0329,0.0329,0.0287,0.0297,0,0,0,0,0,0,0,0,0,0,0.0304,0.0317,0.033,0.033,0.0332,0.0329,0.0329,0.0298,0.0296,0.0278,0,0.0281,0,0.0285,0.0283,0.0283,0,0,0,0.0326,0.0319,0.0312,0.033,0.0332,0.0329,0.0329,0.0297,0.0295,0.0276,0.028,0.0279,0.0284,0.0282,0.0282,0.0273,0.0273,0,0,0.0326,0.0333,0.0314,0.0311,0.0334,0.0329,0.0329,0.0297,0.0298,0.028,0.0278,0.0283,0.0282,0.0282,0.0273,0.0273,0,0,0,0.0331,0.0333,0.0328,0.0313,0.0317,0.0329,0.0329,0.03,0.0297,0.0278,0.0283,0.0282,0.0281,0.0272,0.0273,0.035,0,0,0,0.033,0.0336,0.0329,0.0333,0.0318,0.0316,0.0333,0.0299,0.0296,0.0283,0.0282,0.0281,0.0272,0.0272,0.0348,0.0396,0,0,0,0.033,0.0336,0.0336,0.0333,0.0334,0.0317,0.0312,0.0299,0.0299,0.0282,0.0281,0.0272,0.0272,0.0345,0.0391,0.0411,0,0,0,0.0336,0.0354,0.0336,0.0357,0.0335,0.0353,0.0312,0.0317,0.0309,0.0282,0.0272,0.0273,0.0345,0.0388,0.0408,0.0419,0,0,0,0.0365,0.0358,0.037,0.0354,0.0391,0.0353,0.0386,0.0352,0.0309,0.0278,0.0278,0.0349,0.0391,0.0411,0.0455,0,0,0,0,0.0383,0.0396,0.0402,0.0417,0.0416,0.0433,0.0398,0.0377,0.0354,0.0308,0.0339,0.0364,0.0373,0.0371,0.0276,0.0276,0.0275,0.0275,0.0275,0.0436,0.0436,0.0471,0.0477,0.0488,0.0484,0.0485,0.0449,0.0399,0.0397,0.042,0.0481,0.048,0.0402,0.0402,0.0403,0.0403,0.0403,0.0403,0.0492,0.0514,0.0525,0.0559,0.0569,0.0593,0.0573,0.0544,0.0527,0.0477,0.0482,0.0444,0.0411,0.0409,0.0408,0.0407,0.0407,0.0406,0.0406,0.0531,0.0542,0.0562,0.0617,0.0671,0.0679,0.0733,0.0691,0.0612,0.0621,0.0591,0.053,0.0531,0.0615,0.0616,0.0616,0.0616,0.0616,0.0617,0.0556,0.0578,0.0629,0.0685,0.074,0.0814,0.083,0.0818,0.0745,0.069,0.0644,0.0552,0.0545,0.0542,0.0621,0.0621,0.062,0.062,0.0619,0.0587,0.0604,0.0684,0.0741,0.0871,0.0925,0.095,0.0903,0.088,0.082,0.0709,0.0704,0.0674,0.0664,0.0665,0.0784,0.0784,0.0785,0,0.0607,0.062,0.073,0.0835,0.0948,0.0995,0.1006,0.0982,0.0867,0.085,0.0855,0.0732,0.0725,0.0693,0.0685,0.0686,0,0,0,0.0624,0.066,0.0741,0.085,0.0977,0.1006,0.1013,0.0978,0.0892,0.0867,0.0796,0.0793,0.0732,0.0636,0.0577,0.0568,0.0561,0,0]}]]